Regional Weather Roundup
Issued by NWS Cleveland, OH

Home | Current Version | Previous Version | Graphics & Text | Print | Product List | Glossary On
Versions: 1 2 3 4 5 6 7 8 9 10 11 12 13 14 15 16 17 18 19 20 21 22 23 24 25 26 27 28 29 30 31 32 33 34 35 36 37 38 39 40 41 42 43 44 45 46 47 48 49 50
000
ASUS41 KCLE 011700
RWRCLE
OHIO REGIONAL WEATHER ROUNDUP
NATIONAL WEATHER SERVICE WILMINGTON, OH
100 PM EDT SAT AUG 01 2015

NOTE: "FAIR" INDICATES FEW OR NO CLOUDS BELOW 12,000 FEET WITH NO
SIGNIFICANT WEATHER AND/OR OBSTRUCTIONS TO VISIBILITY.

OHZ001>008-015>018-024>027-034-035-043-044-011800-
   NORTHWEST OHIO

CITY           SKY/WX    TMP DP  RH WIND       PRES   REMARKS
DEFIANCE       MOSUNNY   82  53  36 W8G23     29.97F
FINDLAY        MOSUNNY   82  55  39 W12       29.97S
TOLEDO EXPRESS MOSUNNY   80  54  40 W9G20     29.95F
TOLEDO EXEC    SUNNY     82  54  37 W12       29.95F
LIMA           MOSUNNY   78  54  43 NW9       29.99F
$$

OHZ009>014-019>023-028>033-038-089-011800-
   NORTHEAST OHIO

CITY           SKY/WX    TMP DP  RH WIND       PRES   REMARKS
CLE-HOPKINS    MOSUNNY   78  57  48 W12       29.96F
CLE-LAKEFRONT  SUNNY     78  61  55 W10       29.93F
CUY CO. ARPT   MOSUNNY   79  61  53 NW14      29.95F
LORAIN-ELYRIA  MOSUNNY   78  57  48 NW7       29.96F
ASHTABULA      MOSUNNY   78  54  43 W13       29.94F
AKRON-CANTON   MOSUNNY   82  55  39 NW12      29.96F
WOOSTER        NOT AVBL
MANSFIELD      MOSUNNY   79  54  41 W12       29.98F
YOUNGSTOWN     MOSUNNY   80  56  43 NW15      29.94F
$$

OHZ042-051>053-060>062-070>072-077>081-011800-
  SOUTHWEST OHIO

CITY           SKY/WX    TMP DP  RH WIND       PRES   REMARKS
CINC-COVINGTON MOSUNNY   81  53  37 VRB5      30.02F
CINC-LUNKEN    MOSUNNY   81  55  40 VRB5      30.01F
HAMILTON       SUNNY     82  55  39 NW7       30.02F
DAYTON         NOT AVBL
WRIGHT-PAT AFB NOT AVBL
DAYTON GENERAL MOSUNNY   80  52  37 W10       30.01F
WILMINGTON     MOSUNNY   79  53  40 W6        30.01F
$$

OHZ036-037-039>041-045>050-054>059-063>069-073>076-082>088-011800-
  CENTRAL AND SOUTHEAST OHIO

CITY           SKY/WX    TMP DP  RH WIND       PRES   REMARKS
COLUMBUS       PTSUNNY   78  53  41 W12       29.98S
OSU AIRPORT    MOSUNNY   78  56  46 W8        29.98F
BOLTON FIELD   MOSUNNY   79  55  44 NW5       30.00F
RICKENBACK AFB NOT AVBL
NEWARK         MOSUNNY   82  53  36 W10G18    29.98F
MARION         PTSUNNY   78  55  44 W13G18    29.98F
LANCASTER      MOSUNNY   81  58  45 W8        29.99F
ZANESVILLE     MOSUNNY   80  51  36 NW12      29.98F
NEW PHILLY     PTSUNNY   77  57  50 W12       29.96F
$$



USA.gov is the U.S. government's official web portal to all federal, state and local government web resources and services.